Wind_Speed
45 45 44 44 44 44 44 44 45 45 45 45 46 45 45 45 45 46 46 46 46 47 47 48 48 48 47 46 46 46 46 46 46 45 45 45 45 45
47 47 46 46 46 45 45 45 46 46 46 45 46 46 47 48 48 47 48 47 47 48 49 48 48 47 47 46 46 46 46 46 46 46 46 46 46 46
49 48 47 47 47 47 47 46 46 46 45 45 46 47 48 49 49 49 49 48 48 48 48 48 46 46 46 47 46 46 46 46 47 47 46 46 47 47
48 48 48 48 48 48 47 46 47 47 47 46 46 46 48 48 48 48 49 50 50 48 47 46 46 46 46 47 47 47 47 47 47 47 47 48 48 48
47 47 47 47 47 48 48 48 48 47 46 46 46 46 45 46 47 48 48 48 48 48 47 45 45 45 46 46 47 47 47 48 48 48 48 48 48 47
46 46 46 47 47 47 48 48 48 47 46 46 45 46 45 45 45 45 45 45 46 46 45 44 44 45 45 46 47 47 47 47 47 47 47 47 48 48
46 45 45 46 46 47 47 47 47 46 45 45 45 44 45 45 45 45 44 43 43 43 43 43 44 45 46 46 46 46 47 48 48 48 48 48 48 48
44 44 45 45 46 46 46 45 45 46 46 45 44 44 44 43 43 44 45 43 42 42 42 43 43 44 44 44 45 46 47 47 48 48 48 48 47 47
43 43 44 44 44 43 43 44 44 44 44 44 44 43 42 42 43 44 44 43 43 42 42 42 43 43 44 45 45 45 46 47 47 47 46 45 45 45
41 41 41 40 40 40 41 41 41 41 43 43 43 43 42 42 43 44 43 43 43 43 43 42 42 42 43 45 45 45 46 46 46 45 45 44 44 43
39 39 39 39 39 40 40 41 41 41 42 42 43 42 43 43 43 43 43 42 42 43 44 44 43 43 43 44 44 45 45 44 44 44 44 43 43 42
38 37 37 38 39 40 41 41 41 41 41 41 42 42 42 42 42 43 42 43 43 43 43 43 43 44 43 43 44 44 43 42 42 42 42 41 41 40
38 38 38 38 38 39 40 41 41 41 41 41 41 41 41 41 41 41 42 42 42 42 42 43 43 43 43 43 43 42 41 41 41 40 40 39 38 38
37 37 37 38 38 38 39 39 40 40 40 40 40 40 40 40 40 41 42 42 42 42 42 42 42 43 42 42 41 40 39 39 39 39 38 37 36 35
36 35 36 36 37 38 39 39 39 38 38 38 39 39 39 39 40 41 41 41 41 41 42 42 42 41 41 40 39 38 37 37 37 36 35 35 34 33
34 35 35 35 36 38 38 37 37 37 37 37 38 39 39 39 39 39 40 40 40 40 41 41 41 40 39 39 38 37 37 36 36 35 34 33 33 31
34 34 35 35 35 36 37 37 37 37 37 37 38 38 38 38 39 39 40 40 39 39 40 40 40 39 38 38 38 36 36 36 35 34 32 32 31 30
35 35 35 35 34 34 35 35 36 37 37 36 36 37 37 38 38 39 39 39 39 39 39 38 38 37 37 37 36 35 35 34 33 32 31 30 30 30
32 33 34 35 34 34 35 35 35 36 36 37 37 38 37 38 38 38 39 39 39 39 38 38 37 36 35 34 34 34 33 32 31 31 30 30 30 29
32 32 32 32 32 33 33 34 34 35 36 36 37 37 37 38 39 39 39 39 38 38 37 36 35 34 34 33 32 32 32 31 30 30 29 29 29 29
31 31 31 30 31 32 33 34 34 35 35 36 36 36 37 37 38 39 38 38 37 36 35 33 33 32 32 32 31 30 30 30 30 29 29 28 28 28
30 30 30 30 31 31 32 33 34 35 35 36 36 36 36 36 36 36 36 35 34 33 32 32 32 31 31 30 29 29 29 28 28 29 28 28 28 27
28 29 29 30 30 30 31 33 34 35 36 36 36 36 35 35 35 34 34 33 32 31 31 30 30 29 29 29 28 28 27 27 28 28 28 28 27 26
Wind_Direction
265 266 267 269 271 273 274 275 275 276 277 278 279 279 281 282 283 283 284 284 286 287 289 289 288 288 287 287 288 289 289 289 288 288 288 287 288 290
265 266 267 268 271 274 275 276 276 277 277 278 278 278 280 281 282 283 285 285 286 288 289 289 288 287 286 286 287 288 289 289 289 289 287 287 288 290
265 266 267 268 270 273 274 275 276 277 277 278 279 279 281 283 282 283 285 286 287 289 289 288 287 286 285 286 287 287 288 289 289 289 288 287 288 289
266 267 267 268 270 272 274 274 275 276 277 278 279 280 281 281 282 283 284 286 287 287 287 286 286 286 285 285 286 288 288 288 289 289 288 287 287 288
266 267 267 268 270 272 273 274 275 276 277 277 279 281 282 282 283 283 284 285 286 285 286 286 286 286 285 286 287 288 289 289 290 290 288 287 286 287
266 266 267 268 270 272 274 274 275 276 276 277 279 282 283 284 285 285 285 286 286 285 285 285 286 286 287 288 289 290 290 290 291 290 290 289 288 287
266 267 268 269 270 272 274 274 275 276 277 279 280 283 284 285 286 286 286 287 287 286 285 286 286 287 288 289 290 290 291 291 291 291 291 291 290 289
267 268 269 269 271 273 274 275 276 277 278 279 281 282 284 285 286 287 287 286 285 285 284 285 286 288 288 289 291 291 292 292 293 292 292 292 291 289
266 267 269 270 272 272 274 274 276 277 277 278 280 282 284 285 287 288 287 285 285 285 285 286 287 288 288 289 291 292 292 293 293 292 292 292 291 291
266 268 269 271 271 272 274 275 276 278 277 277 280 282 283 286 288 288 286 286 285 285 286 287 287 288 289 291 292 292 293 293 293 293 293 293 292 291
267 267 268 270 271 272 273 275 278 279 278 277 279 282 284 286 287 287 286 286 285 285 286 287 287 288 290 291 292 293 293 294 294 294 294 293 293 293
266 267 268 269 271 273 274 276 278 279 279 279 280 282 284 285 286 287 287 286 286 287 287 287 288 289 291 291 293 293 293 293 293 294 295 295 294 293
269 270 269 270 271 273 275 276 277 279 279 279 280 282 283 284 285 287 287 288 288 288 288 288 289 290 292 293 293 293 293 294 294 295 296 296 295 294
269 271 271 270 271 273 275 277 279 279 279 280 280 282 283 284 286 287 288 289 289 289 290 290 291 291 292 293 293 293 294 295 296 297 298 298 297 296
268 270 270 270 272 274 276 277 279 281 281 281 280 281 283 284 286 287 289 289 289 289 290 291 291 292 292 293 293 293 293 295 297 297 299 298 297 297
267 268 269 271 273 276 276 277 279 281 281 280 280 281 282 284 285 288 289 289 290 291 292 293 293 292 292 291 293 294 294 294 296 297 298 298 298 297
268 269 270 272 274 275 275 275 277 279 280 280 280 281 281 283 285 287 289 290 290 291 291 292 293 293 292 291 292 293 294 295 296 297 297 296 297 297
272 272 273 274 275 276 276 277 277 278 279 279 281 282 282 283 285 288 290 291 291 291 291 291 292 291 291 291 292 293 294 295 296 296 295 295 296 296
273 274 274 275 276 277 278 280 280 281 281 281 284 285 284 284 286 288 289 290 291 291 291 291 291 290 290 290 291 292 292 293 294 295 295 294 295 295
272 274 274 275 276 278 280 281 283 283 283 284 285 285 285 285 286 288 289 289 289 290 290 291 290 290 290 290 290 291 291 292 293 294 294 294 295 295
272 273 273 274 275 278 280 282 284 285 286 286 286 285 285 285 287 287 288 289 289 288 288 288 289 290 290 290 290 290 291 292 292 293 293 293 294 295
271 272 273 273 275 278 280 282 285 286 287 286 285 285 285 285 286 287 288 288 288 288 287 287 287 288 289 290 292 292 293 293 293 294 294 295 295 295
273 275 275 275 277 279 281 283 285 287 288 287 286 285 285 286 287 288 288 287 287 286 285 285 286 287 288 290 292 292 293 293 293 293 294 294 295 295
Height
5700 5701 5702 5703 5703 5703 5703 5703 5703 5703 5705 5704 5703 5702 5700 5699 5698 5697 5696 5694 5692 5690 5687 5684 5682 5679 5676 5673 5671 5668 5665 5662 5660 5657 5655 5652 5650 5647
5688 5689 5690 5691 5691 5691 5691 5691 5690 5690 5691 5692 5691 5690 5688 5687 5686 5684 5683 5682 5679 5677 5674 5671 5668 5666 5663 5661 5658 5655 5652 5650 5647 5644 5642 5640 5637 5634
5676 5677 5678 5679 5679 5679 5679 5678 5678 5678 5678 5679 5678 5677 5676 5674 5673 5672 5670 5668 5666 5664 5661 5658 5655 5652 5650 5648 5645 5643 5640 5637 5634 5631 5628 5626 5624 5622
5664 5665 5666 5667 5667 5667 5666 5666 5666 5665 5665 5665 5665 5664 5663 5661 5660 5659 5657 5655 5653 5651 5648 5645 5643 5640 5637 5635 5632 5630 5627 5624 5621 5618 5615 5614 5611 5608
5651 5652 5653 5654 5654 5654 5654 5654 5653 5653 5653 5653 5652 5651 5650 5649 5648 5646 5644 5642 5640 5637 5635 5633 5630 5627 5625 5622 5619 5617 5614 5611 5608 5605 5602 5599 5597 5594
5639 5640 5640 5641 5641 5641 5641 5641 5641 5641 5640 5640 5640 5639 5637 5636 5635 5633 5632 5629 5627 5625 5623 5620 5618 5615 5612 5610 5607 5605 5601 5598 5595 5591 5588 5586 5583 5580
5627 5628 5629 5629 5629 5629 5629 5629 5628 5628 5628 5627 5627 5626 5625 5624 5623 5621 5619 5618 5616 5613 5611 5608 5606 5603 5600 5597 5594 5591 5588 5585 5582 5578 5575 5572 5569 5567
5615 5616 5617 5617 5617 5617 5617 5616 5616 5616 5616 5615 5615 5614 5613 5612 5610 5608 5607 5606 5604 5602 5599 5597 5594 5591 5588 5585 5582 5579 5575 5572 5568 5565 5562 5559 5555 5553
5604 5605 5605 5605 5605 5605 5605 5605 5604 5603 5603 5604 5603 5602 5601 5600 5599 5597 5594 5592 5591 5588 5586 5585 5581 5579 5576 5572 5569 5566 5563 5559 5555 5552 5549 5546 5543 5540
5593 5593 5594 5594 5594 5594 5594 5593 5593 5592 5592 5591 5591 5591 5589 5587 5586 5585 5582 5581 5579 5576 5573 5572 5569 5567 5564 5560 5557 5553 5550 5546 5543 5539 5536 5533 5530 5527
5582 5583 5583 5583 5583 5583 5583 5583 5582 5581 5580 5579 5579 5579 5578 5576 5574 5572 5570 5568 5567 5565 5561 5559 5557 5555 5552 5548 5544 5541 5537 5534 5530 5527 5524 5521 5518 5515
5572 5572 5572 5572 5572 5572 5572 5572 5571 5570 5569 5569 5568 5567 5566 5564 5562 5560 5558 5556 5554 5553 5550 5547 5545 5542 5540 5538 5533 5529 5525 5522 5519 5515 5512 5509 5506 5504
5561 5562 5562 5562 5562 5562 5562 5561 5560 5559 5558 5558 5557 5556 5555 5553 5551 5549 5546 5544 5542 5540 5538 5536 5533 5530 5527 5525 5522 5517 5514 5511 5508 5504 5501 5498 5495 5493
5551 5552 5552 5552 5552 5552 5551 5550 5549 5548 5548 5547 5546 5545 5544 5542 5540 5538 5536 5533 5531 5529 5526 5523 5521 5518 5515 5512 5510 5507 5503 5500 5497 5494 5491 5488 5485 5482
5541 5542 5542 5541 5541 5541 5541 5540 5539 5538 5537 5536 5536 5535 5533 5531 5530 5527 5525 5522 5520 5517 5514 5512 5509 5507 5504 5501 5499 5496 5493 5491 5487 5484 5481 5478 5476 5473
5531 5531 5532 5531 5531 5531 5531 5530 5529 5528 5527 5526 5525 5524 5523 5521 5519 5516 5514 5512 5509 5506 5503 5500 5498 5495 5493 5490 5488 5486 5483 5481 5478 5475 5472 5470 5467 5464
5522 5522 5522 5522 5522 5521 5521 5520 5519 5518 5517 5516 5515 5513 5512 5510 5508 5506 5503 5501 5498 5496 5493 5490 5487 5484 5482 5480 5478 5476 5473 5471 5469 5466 5464 5461 5459 5456
5512 5512 5512 5512 5512 5511 5511 5510 5509 5508 5507 5506 5504 5503 5501 5499 5497 5495 5492 5490 5487 5485 5482 5480 5477 5475 5472 5470 5468 5466 5464 5462 5460 5457 5455 5453 5451 5448
5503 5503 5503 5503 5502 5502 5501 5500 5499 5498 5497 5495 5494 5492 5490 5488 5486 5484 5481 5479 5476 5474 5471 5469 5466 5464 5463 5461 5459 5456 5455 5453 5450 5448 5446 5444 5442 5440
5494 5494 5494 5494 5493 5493 5492 5491 5489 5488 5487 5485 5484 5481 5479 5477 5475 5473 5470 5468 5465 5463 5461 5458 5456 5454 5453 5451 5450 5448 5445 5444 5442 5440 5438 5436 5434 5431
5485 5485 5485 5485 5484 5484 5483 5481 5480 5479 5477 5475 5473 5471 5468 5466 5464 5462 5459 5457 5455 5453 5451 5449 5446 5445 5443 5441 5440 5439 5437 5434 5433 5431 5430 5428 5426 5424
5476 5476 5476 5476 5475 5474 5473 5472 5470 5469 5467 5464 5462 5460 5458 5455 5453 5451 5449 5447 5445 5443 5441 5439 5438 5436 5434 5433 5431 5430 5428 5426 5424 5422 5421 5420 5418 5416
5468 5467 5467 5467 5466 5465 5464 5462 5461 5458 5456 5454 5452 5449 5447 5445 5443 5441 5439 5437 5435 5434 5432 5431 5429 5427 5426 5424 5423 5421 5420 5418 5416 5414 5412 5410 5409 5407